Radiation Dose at Monitoring Post of Fukushima Daini Nuclear Power Station
Date,Time,MP-1(microSv/h),MP-2(microSv/h),MP-3(microSv/h),MP-4(microSv/h),MP-5(microSv/h),MP-6(microSv/h),MP-7(microSv/h),Wind Direction,Wind Velocity(m/s),Rain
2015/11/10,00:00,0.498,0.283,0.499,0.465,0.445,0.232,0.199,north,5.2,Yes
2015/11/10,00:10,0.494,0.284,0.503,0.464,0.448,0.232,0.201,north-northwest,6.2,Yes
2015/11/10,00:20,0.498,0.284,0.501,0.467,0.448,0.234,0.201,north,8.3,Yes
2015/11/10,00:30,0.496,0.288,0.505,0.465,0.451,0.235,0.204,west-northwest,6.6,Yes
2015/11/10,00:40,0.501,0.288,0.503,0.468,0.452,0.236,0.204,north-northwest,6.7,Yes
2015/11/10,00:50,0.497,0.289,0.505,0.464,0.451,0.236,0.203,north-northwest,6.4,Yes
2015/11/10,01:00,0.500,0.287,0.502,0.467,0.452,0.236,0.204,north-northwest,6.8,Yes
2015/11/10,01:10,0.496,0.287,0.503,0.464,0.450,0.236,0.203,north-northwest,5.8,Yes
2015/11/10,01:20,0.499,0.288,0.503,0.465,0.452,0.236,0.203,north-northwest,5.8,Yes
2015/11/10,01:30,0.494,0.285,0.502,0.462,0.449,0.235,0.202,north-northwest,5.8,Yes
2015/11/10,01:40,0.497,0.285,0.501,0.464,0.451,0.234,0.203,north-northwest,5.7,Yes
2015/11/10,01:50,0.494,0.283,0.500,0.461,0.449,0.234,0.202,north-northwest,6.4,Yes
2015/11/10,02:00,0.495,0.287,0.502,0.463,0.451,0.233,0.201,north-northwest,7.5,Yes
2015/11/10,02:10,0.493,0.284,0.501,0.461,0.446,0.233,0.201,north-northwest,6.7,Yes
2015/11/10,02:20,0.493,0.284,0.503,0.463,0.450,0.234,0.201,north,6.1,Yes
2015/11/10,02:30,0.495,0.283,0.499,0.460,0.448,0.234,0.200,north,6.8,Yes
2015/11/10,02:40,0.491,0.284,0.502,0.461,0.448,0.232,0.199,north,7.0,No
2015/11/10,02:50,0.492,0.282,0.497,0.459,0.448,0.231,0.198,north,6.9,Yes
2015/11/10,03:00,0.489,0.280,0.500,0.459,0.445,0.229,0.197,north-northwest,6.7,Yes
2015/11/10,03:10,0.490,0.281,0.495,0.458,0.447,0.229,0.196,north-northwest,6.7,Yes
2015/11/10,03:20,0.486,0.280,0.499,0.456,0.443,0.227,0.195,north-northwest,6.8,Yes
2015/11/10,03:30,0.491,0.278,0.496,0.460,0.446,0.227,0.194,north-northwest,7.0,Yes
2015/11/10,03:40,0.484,0.276,0.497,0.456,0.440,0.226,0.194,north-northwest,6.5,No
2015/11/10,03:50,0.488,0.278,0.494,0.458,0.446,0.224,0.193,north,7.0,Yes
2015/11/10,04:00,0.483,0.275,0.496,0.453,0.442,0.224,0.193,northwest,4.5,Yes
2015/11/10,04:10,0.489,0.277,0.494,0.459,0.445,0.226,0.194,southwest,3.1,Yes
2015/11/10,04:20,0.488,0.279,0.498,0.457,0.443,0.229,0.196,north,6.7,Yes
2015/11/10,04:30,0.490,0.279,0.496,0.460,0.445,0.228,0.197,north,7.1,Yes
2015/11/10,04:40,0.486,0.278,0.497,0.456,0.445,0.228,0.197,north-northwest,8.1,Yes
2015/11/10,04:50,0.490,0.278,0.496,0.460,0.441,0.228,0.196,north,7.3,No
2015/11/10,05:00,0.487,0.279,0.496,0.456,0.446,0.227,0.195,north,5.7,Yes
2015/11/10,05:10,0.487,0.276,0.497,0.457,0.442,0.225,0.194,north,6.0,No
2015/11/10,05:20,0.487,0.276,0.494,0.456,0.445,0.226,0.195,north,6.3,No
2015/11/10,05:30,0.484,0.275,0.496,0.456,0.442,0.223,0.193,north,6.9,No
2015/11/10,05:40,0.484,0.275,0.491,0.455,0.442,0.224,0.192,north,5.3,No
2015/11/10,05:50,0.481,0.273,0.495,0.453,0.440,0.223,0.191,north,6.4,Yes
2015/11/10,06:00,0.485,0.274,0.492,0.455,0.442,0.223,0.191,north,6.7,Yes
2015/11/10,06:10,0.480,0.275,0.496,0.453,0.441,0.223,0.192,north,6.3,Yes
2015/11/10,06:20,0.486,0.276,0.494,0.457,0.441,0.226,0.194,north,5.6,Yes
2015/11/10,06:30,0.485,0.277,0.499,0.455,0.445,0.226,0.195,north,7.7,Yes
2015/11/10,06:40,0.489,0.277,0.494,0.459,0.443,0.228,0.196,north,6.1,Yes
2015/11/10,06:50,0.486,0.279,0.498,0.455,0.448,0.227,0.196,north,6.3,Yes
2015/11/10,07:00,0.489,0.278,0.496,0.461,0.444,0.228,0.196,north-northwest,5.5,Yes
2015/11/10,07:10,0.489,0.278,0.499,0.457,0.445,0.228,0.196,north,6.7,Yes
2015/11/10,07:20,0.488,0.278,0.497,0.458,0.444,0.226,0.194,north,6.5,Yes
2015/11/10,07:30,0.488,0.279,0.497,0.457,0.445,0.229,0.197,north-northwest,6.9,Yes
2015/11/10,07:40,0.486,0.278,0.500,0.456,0.444,0.228,0.195,north,6.7,No
2015/11/10,07:50,0.490,0.277,0.496,0.459,0.445,0.228,0.195,north,6.3,Yes
2015/11/10,08:00,0.486,0.278,0.500,0.457,0.445,0.227,0.197,north,5.1,Yes
2015/11/10,08:10,0.490,0.277,0.496,0.458,0.443,0.228,0.197,north,5.6,Yes
2015/11/10,08:20,0.485,0.279,0.499,0.455,0.447,0.227,0.195,north,5.3,Yes
2015/11/10,08:30,0.489,0.277,0.493,0.460,0.442,0.227,0.195,north,5.6,Yes
2015/11/10,08:40,0.484,0.277,0.498,0.455,0.445,0.227,0.195,north,5.0,Yes
2015/11/10,08:50,0.488,0.275,0.492,0.457,0.441,0.224,0.193,north,5.3,Yes
2015/11/10,09:00,0.484,0.274,0.496,0.454,0.444,0.224,0.193,north,5.5,Yes
2015/11/10,09:10,0.486,0.274,0.493,0.458,0.438,0.224,0.191,north,4.2,Yes
2015/11/10,09:20,0.484,0.274,0.497,0.455,0.444,0.223,0.192,north,3.6,Yes
2015/11/10,09:30,0.486,0.274,0.491,0.454,0.438,0.224,0.191,north,3.9,No
2015/11/10,09:40,0.481,0.273,0.496,0.454,0.442,0.221,0.192,north,4.2,No
2015/11/10,09:50,0.485,0.273,0.491,0.454,0.438,0.222,0.192,north,5.6,No
2015/11/10,10:00,0.481,0.272,0.496,0.454,0.442,0.221,0.191,north,5.0,No
2015/11/10,10:10,0.484,0.271,0.491,0.454,0.438,0.223,0.190,north,4.4,No
2015/11/10,10:20,0.480,0.274,0.494,0.456,0.444,0.220,0.191,north-northeast,3.6,No
2015/11/10,10:30,0.484,0.271,0.494,0.450,0.439,0.221,0.189,north,4.4,No
2015/11/10,10:40,0.482,0.273,0.492,0.456,0.439,0.220,0.190,north,6.1,No
2015/11/10,10:50,0.484,0.271,0.493,0.452,0.441,0.221,0.190,north,5.9,No
2015/11/10,11:00,0.483,0.274,0.494,0.454,0.438,0.221,0.191,north-northeast,6.2,No
2015/11/10,11:10,0.484,0.272,0.494,0.454,0.441,0.220,0.190,north,6.0,No
2015/11/10,11:20,0.483,0.274,0.491,0.455,0.438,0.221,0.190,north,4.2,No
2015/11/10,11:30,0.484,0.273,0.495,0.455,0.444,0.221,0.189,north,4.0,No
2015/11/10,11:40,0.487,0.274,0.492,0.454,0.440,0.222,0.191,north,3.6,No
2015/11/10,11:50,0.482,0.272,0.496,0.457,0.444,0.221,0.190,north,4.0,No
2015/11/10,12:00,0.488,0.273,0.492,0.455,0.438,0.221,0.191,north,4.6,No
2015/11/10,12:10,0.484,0.273,0.497,0.459,0.445,0.221,0.190,north,3.6,Yes
2015/11/10,12:20,0.489,0.274,0.492,0.453,0.439,0.222,0.191,north,4.3,Yes
2015/11/10,12:30,0.488,0.276,0.498,0.462,0.444,0.225,0.193,north,3.7,Yes
2015/11/10,12:40,0.491,0.280,0.495,0.459,0.442,0.227,0.195,north,4.7,Yes
2015/11/10,12:50,0.489,0.278,0.499,0.462,0.447,0.227,0.193,north,3.8,No
2015/11/10,13:00,0.492,0.280,0.496,0.458,0.443,0.226,0.195,north,3.7,Yes
2015/11/10,13:10,0.487,0.279,0.500,0.460,0.445,0.227,0.194,north,3.3,No
2015/11/10,13:20,0.491,0.279,0.498,0.459,0.445,0.225,0.195,north,3.1,No
2015/11/10,13:30,0.486,0.278,0.495,0.456,0.443,0.226,0.193,north,2.7,No
2015/11/10,13:40,0.491,0.277,0.498,0.460,0.446,0.224,0.192,north,3.1,No
2015/11/10,13:50,0.485,0.276,0.494,0.454,0.440,0.224,0.193,north-northeast,3.9,No
2015/11/10,14:00,0.489,0.276,0.499,0.459,0.444,0.223,0.192,north-northeast,3.9,No
2015/11/10,14:10,0.486,0.276,0.495,0.455,0.440,0.223,0.191,north,3.7,No
2015/11/10,14:20,0.487,0.274,0.498,0.457,0.443,0.223,0.192,north-northeast,3.8,No
2015/11/10,14:30,0.483,0.276,0.492,0.457,0.440,0.222,0.192,north-northeast,4.1,No
2015/11/10,14:40,0.487,0.273,0.499,0.455,0.443,0.223,0.191,north,4.3,No
2015/11/10,14:50,0.488,0.274,0.494,0.459,0.442,0.222,0.192,north,3.6,No
2015/11/10,15:00,0.485,0.273,0.495,0.454,0.441,0.222,0.190,north,3.5,No
2015/11/10,15:10,0.487,0.274,0.496,0.458,0.441,0.222,0.191,north,3.5,No
2015/11/10,15:20,0.486,0.272,0.494,0.455,0.441,0.223,0.191,north,4.3,No
2015/11/10,15:30,0.486,0.275,0.498,0.459,0.443,0.222,0.191,north,3.3,No
2015/11/10,15:40,0.484,0.273,0.491,0.455,0.441,0.222,0.190,north,3.6,No
2015/11/10,15:50,0.487,0.275,0.496,0.460,0.442,0.221,0.191,north,3.4,No
2015/11/10,16:00,0.485,0.272,0.491,0.456,0.440,0.221,0.191,north,3.0,No
2015/11/10,16:10,0.488,0.275,0.498,0.458,0.445,0.222,0.190,north,2.5,No
2015/11/10,16:20,0.484,0.272,0.491,0.456,0.439,0.221,0.192,north,2.2,No
2015/11/10,16:30,0.487,0.274,0.498,0.459,0.445,0.221,0.190,north,2.5,No
2015/11/10,16:40,0.484,0.271,0.492,0.454,0.438,0.221,0.191,north,3.6,No
2015/11/10,16:50,0.490,0.273,0.497,0.459,0.445,0.222,0.190,north,4.2,No
2015/11/10,17:00,0.483,0.273,0.493,0.457,0.440,0.222,0.192,north,3.9,No
2015/11/10,17:10,0.488,0.275,0.497,0.459,0.443,0.221,0.190,north,4.3,No
2015/11/10,17:20,0.485,0.272,0.494,0.455,0.440,0.222,0.192,north,4.1,No
2015/11/10,17:30,0.486,0.275,0.496,0.460,0.444,0.222,0.190,north-northwest,4.3,No
2015/11/10,17:40,0.486,0.273,0.494,0.457,0.439,0.222,0.192,north-northwest,3.5,No
2015/11/10,17:50,0.487,0.275,0.497,0.457,0.445,0.223,0.192,north-northwest,3.9,No
2015/11/10,18:00,0.486,0.273,0.497,0.458,0.440,0.222,0.192,north-northwest,3.5,No
2015/11/10,18:10,0.486,0.275,0.495,0.457,0.444,0.223,0.192,north-northwest,4.2,No
2015/11/10,18:20,0.486,0.273,0.496,0.457,0.441,0.221,0.192,northwest,4.6,No
2015/11/10,18:30,0.486,0.275,0.496,0.457,0.443,0.223,0.191,north-northwest,5.3,No
2015/11/10,18:40,0.487,0.274,0.496,0.457,0.441,0.221,0.191,north-northwest,6.7,No
2015/11/10,18:50,0.486,0.275,0.498,0.459,0.443,0.223,0.192,north-northwest,6.1,No
2015/11/10,19:00,0.486,0.274,0.495,0.458,0.442,0.222,0.191,north,6.4,No
2015/11/10,19:10,0.488,0.275,0.496,0.458,0.442,0.223,0.191,north,6.2,No
2015/11/10,19:20,0.489,0.275,0.497,0.457,0.443,0.222,0.192,north,5.2,No
2015/11/10,19:30,0.488,0.274,0.496,0.460,0.442,0.222,0.192,north-northwest,5.1,No
2015/11/10,19:40,0.486,0.274,0.495,0.456,0.444,0.223,0.192,north,5.9,No
2015/11/10,19:50,0.489,0.273,0.499,0.460,0.441,0.223,0.191,north-northwest,5.3,No
2015/11/10,20:00,0.486,0.274,0.495,0.456,0.446,0.222,0.192,north-northwest,6.1,No
2015/11/10,20:10,0.490,0.275,0.497,0.458,0.442,0.221,0.192,north-northwest,5.4,No
2015/11/10,20:20,0.486,0.274,0.494,0.460,0.443,0.223,0.193,north,5.6,No
2015/11/10,20:30,0.491,0.275,0.498,0.458,0.442,0.222,0.191,north,6.7,No
2015/11/10,20:40,0.489,0.274,0.497,0.459,0.441,0.222,0.193,north,6.6,No
2015/11/10,20:50,0.490,0.274,0.495,0.457,0.444,0.223,0.193,north,5.4,No
2015/11/10,21:00,0.489,0.273,0.498,0.461,0.440,0.221,0.191,north,4.7,No
2015/11/10,21:10,0.486,0.274,0.495,0.459,0.442,0.223,0.192,north-northwest,4.4,No
2015/11/10,21:20,0.490,0.274,0.500,0.458,0.440,0.221,0.192,north-northwest,3.9,No
2015/11/10,21:30,0.488,0.273,0.494,0.458,0.441,0.223,0.192,northwest,4.5,No
2015/11/10,21:40,0.490,0.275,0.499,0.458,0.441,0.222,0.192,north-northwest,4.4,No
2015/11/10,21:50,0.486,0.274,0.496,0.460,0.440,0.221,0.193,north,3.1,No
2015/11/10,22:00,0.490,0.274,0.497,0.457,0.442,0.223,0.192,north-northwest,3.9,No
2015/11/10,22:10,0.489,0.276,0.497,0.459,0.442,0.222,0.192,north-northwest,3.4,No
2015/11/10,22:20,0.489,0.274,0.496,0.460,0.440,0.221,0.193,northwest,3.4,No
2015/11/10,22:30,0.492,0.274,0.499,0.457,0.442,0.223,0.193,northwest,3.3,No
2015/11/10,22:40,0.486,0.274,0.494,0.460,0.440,0.223,0.192,northwest,4.7,No
2015/11/10,22:50,0.491,0.274,0.497,0.458,0.439,0.223,0.192,north-northwest,5.1,No
2015/11/10,23:00,0.487,0.275,0.498,0.458,0.443,0.222,0.192,north-northwest,5.9,No
2015/11/10,23:10,0.487,0.276,0.495,0.458,0.439,0.222,0.191,north-northwest,5.3,No
2015/11/10,23:20,0.490,0.273,0.498,0.456,0.442,0.222,0.191,north-northwest,5.4,No
2015/11/10,23:30,0.487,0.275,0.497,0.459,0.441,0.223,0.193,north-northwest,6.4,No
2015/11/10,23:40,0.490,0.274,0.499,0.456,0.439,0.222,0.192,north-northwest,6.1,No
2015/11/10,23:50,0.488,0.273,0.496,0.458,0.441,0.222,0.193,north-northwest,6.4,No
